ORBCOMM FM115 [+] (41186 NORAD) Tracking and Keplerian Element Data

This shows tracking and keplerian element data for the satellite.

Feedback or suggestion? Click here.




ElementValue
Catalog41186
NameORBCOMM FM115 [+]
Epoch Orbit13887
Epoch Day198.88424884
Epoch Year2018
RAAN106.8191
Inclination47.0002
Eccentricity0.0002894
Argument of Perigee297.1198
Mean Anonmoly62.939
Mean Motion14.54720484
Decay Rate-4.6E-07
L11 41186U 15081H 18198.88424884 -.00000046 00000-0 27686-4 0 9992
L22 41186 47.0002 106.8191 0002894 297.1198 62.9390 14.54720484138876

Live tracking and technical data element details for ORBCOMM FM115 [+] (NORAD 41186). ORBCOMM FM115 [+] can be tracked NOW for your location showing map with azimuth and elevation plus other details from your city location.

Track the satellite on the map from your city or location and see movement details for azimuth, elevation, latitude, longitude, range, height, and movement on the map or in text.







IsCatalogInMostPopularTable: catalog: 41186, numindb: 58
Update: records affected: 1



GetName: 41186 ORBCOMM FM115 [+]

Hit Count: updated at: Fri, 20 Jul 2018 20:36:04 GMT